Location: Gradaro
(45.0833°N, 10.8833°E)
Time: 21:07:34
(UTC+00:00)

Cosmos 2074 Rocket - Pass Details

Date: 29 November 2020
Orbit: 968 x 985 km, 82.9° (Epoch: 20 January)

Event Time Altitude Azimuth Distance (km) Brightness Sun altitude
Rises 05:28:17 0° 211° (SSW) 3,649 6.9 -11.1°
Reaches altitude 10° 05:30:58 10° 219° (SW) 2,705 6.1 -10.7°
Maximum altitude 05:36:41 38° 286° (WNW) 1,432 4.4 -9.7°
Drops below altitude 10° 05:42:28 10° 354° (N) 2,721 6.1 -8.8°
Sets 05:45:11 0° 3° (N) 3,673 6.8 -8.4°
